Theta_e
298 297 297 297 297 296 296 296 295 295 295 295 294 294 294 294 294 294 296 296 296 296 295 294 294 294 294 295 295 295 295 295 295 297 296 296 295 296 297 298 300 300 301
298 297 297 297 297 296 296 296 295 295 295 294 294 294 293 293 293 294 297 296 297 296 295 294 294 294 295 295 295 295 295 295 295 295 297 296 296 296 296 297 298 299 298
299 297 297 297 297 297 296 296 295 295 295 294 294 294 293 293 293 295 296 295 297 297 296 295 294 294 294 296 295 294 294 293 294 295 295 296 296 295 294 294 295 296 300
299 298 297 297 297 297 296 296 295 295 295 294 294 293 294 293 293 294 293 293 296 297 295 295 294 294 294 296 295 294 293 293 293 293 293 293 293 294 294 293 294 294 295
300 299 298 297 297 297 296 296 295 295 295 294 294 294 294 293 293 293 292 292 296 296 295 294 292 294 295 295 295 294 294 293 293 292 292 292 291 291 291 291 291 292 294
300 300 298 297 297 297 297 297 295 295 294 294 294 294 294 293 293 293 293 292 296 296 295 294 291 293 294 294 295 295 294 294 293 293 293 292 293 292 291 291 292 290 290
300 300 299 298 297 297 297 297 296 295 294 294 294 294 294 294 293 293 293 293 296 297 295 294 291 291 293 294 294 294 293 293 293 293 292 292 291 291 291 291 292 291 291
299 300 300 298 298 297 297 297 297 295 294 294 294 294 294 294 293 293 293 293 296 296 295 294 291 291 292 294 294 292 294 293 292 293 293 293 292 292 291 291 291 291 291
299 300 300 299 298 298 297 297 298 297 295 295 294 294 294 294 293 293 293 293 294 296 295 294 292 291 290 291 291 291 292 292 292 292 293 293 292 292 291 291 291 291 291
299 300 300 300 299 298 298 298 298 297 296 295 295 294 294 294 294 294 293 293 294 295 294 294 293 292 290 290 290 291 291 290 291 293 293 293 293 294 293 292 292 292 291
300 299 299 300 300 299 298 297 297 296 295 295 295 295 295 295 295 294 294 294 293 294 293 294 293 291 290 290 289 289 290 290 291 292 293 293 293 293 292 293 293 293 292
300 299 299 299 300 300 298 297 296 296 296 296 295 296 296 295 295 296 295 295 295 295 294 293 293 291 290 290 290 289 289 290 291 292 292 292 291 291 292 292 292 291 290
299 299 298 298 299 299 299 298 297 297 296 296 296 296 296 296 296 296 296 296 296 295 294 293 292 291 290 290 290 291 289 289 289 290 291 291 290 290 291 291 291 291 291
299 299 299 298 298 298 299 298 298 298 297 297 297 296 296 296 296 296 296 295 293 294 294 292 291 291 291 291 291 291 290 289 289 289 290 290 290 290 290 290 290 290 290
298 298 299 298 297 297 298 298 298 298 297 297 297 296 296 296 296 296 295 293 292 291 290 290 291 291 291 291 291 292 292 290 289 289 289 289 289 289 289 289 290 290 290
298 298 298 299 298 297 297 297 297 297 297 297 297 296 296 295 294 294 293 292 291 290 290 291 291 291 291 291 290 291 292 293 290 289 289 289 289 289 289 289 289 289 289
298 298 298 298 298 298 297 296 296 296 296 296 296 296 295 294 293 293 292 291 291 290 290 290 290 290 290 291 290 290 290 292 292 290 289 289 289 289 289 289 288 288 288
298 297 297 297 298 298 298 296 296 295 295 295 295 295 294 294 293 292 291 291 290 291 290 289 290 290 290 290 290 290 290 291 292 292 289 289 289 289 289 289 288 288 288
298 297 297 296 297 297 297 297 296 295 295 295 294 294 294 293 292 292 291 291 291 290 290 289 289 289 289 289 289 290 289 290 291 291 290 289 289 288 288 288 288 288 288
298 297 296 296 296 296 296 297 297 295 295 294 294 294 294 293 292 291 291 291 291 290 290 289 289 289 289 289 289 289 289 290 291 292 291 289 288 288 288 288 288 288 288
300 297 296 296 296 296 296 296 297 296 295 295 294 294 293 293 292 292 292 292 292 290 289 289 288 288 288 288 288 289 289 290 291 292 291 289 288 288 287 287 287 287 287
300 298 297 296 296 295 295 296 296 296 296 295 295 294 293 293 292 291 292 292 292 290 289 289 289 288 288 288 288 289 289 290 291 292 289 288 288 287 287 287 287 287 287
301 299 297 296 296 295 295 295 296 296 296 296 295 294 294 292 291 291 293 293 291 289 289 289 289 289 288 288 289 289 289 291 292 290 289 288 287 287 287 287 287 287 287
302 300 298 296 296 295 295 295 295 295 295 296 295 294 294 292 292 293 294 293 290 289 289 289 289 289 289 288 289 289 290 291 291 290 289 288 287 287 287 287 287 287 287
303 300 298 296 296 295 295 295 295 295 295 295 295 295 294 292 292 294 294 291 290 289 289 289 289 289 289 289 288 289 290 290 289 289 288 288 287 287 287 287 287 287 287
301 300 298 296 296 295 294 295 295 295 295 295 295 295 293 292 293 294 291 290 290 289 289 289 289 289 289 289 289 289 290 289 289 289 288 288 287 287 287 286 286 287 287
Wind_Speed
15 14 12 10 10 10 10 10 10 12 12 14 14 15 16 16 16 12 15 16 14 21 19 18 16 18 20 22 17 19 21 20 23 24 13 18 20 19 18 15 13 10 12
17 15 14 12 11 11 11 10 11 12 12 13 13 14 15 15 15 13 11 18 13 21 22 19 16 16 18 20 18 20 17 18 20 20 14 12 16 16 15 14 10 6 7
18 17 16 15 13 12 11 11 11 12 12 12 12 13 15 15 15 12 14 13 13 16 23 18 16 15 16 19 19 20 19 16 15 14 15 14 12 15 17 15 11 6 7
21 19 17 16 15 13 12 12 12 12 12 12 12 13 14 15 14 14 17 16 9 14 19 15 15 15 13 18 18 19 18 14 13 15 15 16 16 17 17 17 14 11 10
23 22 19 17 16 16 14 13 13 12 11 12 12 13 14 14 14 15 17 16 9 13 16 17 15 12 11 14 16 18 18 17 15 13 14 14 13 15 16 15 13 12 7
25 23 20 19 18 17 15 14 14 13 12 13 12 13 14 14 14 15 17 18 10 12 17 18 16 7 11 13 15 12 14 15 15 15 12 12 13 13 12 15 14 14 10
26 24 22 21 20 18 17 16 15 14 13 13 14 15 15 15 14 14 16 17 10 12 16 18 15 12 7 12 12 12 11 11 10 14 14 10 9 11 12 8 10 13 11
28 26 24 22 21 19 18 17 15 15 15 15 15 15 16 15 15 14 15 15 8 10 16 17 15 13 9 12 14 10 10 9 10 11 13 11 11 10 8 9 9 11 11
31 28 26 24 22 21 20 18 16 16 16 16 16 16 17 15 14 14 14 14 9 7 13 15 15 13 13 13 13 10 10 12 7 11 10 10 8 7 8 5 6 8 9
31 29 26 25 24 23 20 19 17 17 17 16 16 15 17 16 14 13 13 14 11 9 10 12 12 14 14 12 12 9 11 12 10 9 13 15 15 12 11 9 8 8 8
29 28 27 27 25 23 22 20 19 18 17 17 17 15 15 14 14 13 12 13 12 13 8 9 13 12 12 10 10 9 10 9 7 8 10 12 12 13 16 13 10 8 7
30 29 28 27 27 25 23 22 20 19 18 17 16 15 14 14 14 14 12 10 10 12 12 10 12 11 9 8 7 9 7 6 6 5 6 8 10 10 11 12 16 13 10
30 30 29 28 27 26 24 23 21 20 19 17 16 15 14 12 12 13 10 9 9 12 13 11 10 8 6 5 6 8 8 7 5 5 5 7 8 8 8 9 13 14 13
31 30 29 29 28 27 26 24 23 21 20 18 17 15 14 13 12 10 15 15 13 13 14 14 10 5 3 4 5 6 6 7 6 6 5 6 7 7 7 9 10 11 12
32 31 30 29 28 27 27 25 24 21 20 18 17 17 16 16 14 15 16 16 14 12 10 7 3 4 3 6 5 5 6 7 7 5 5 6 7 7 8 8 9 11 11
32 32 31 29 28 28 27 25 24 22 21 19 18 20 18 18 17 16 14 13 12 10 6 4 4 5 5 7 5 5 5 6 6 7 6 7 8 8 8 7 8 9 10
33 32 31 30 29 28 27 26 24 22 20 19 18 17 17 16 16 15 13 11 10 7 5 6 6 6 6 6 5 5 5 5 5 6 7 7 8 8 8 9 10 10 11
32 32 32 31 29 27 26 26 23 22 22 19 17 16 14 14 14 13 11 10 8 5 4 7 7 7 6 5 5 6 5 4 5 5 6 7 7 8 8 9 11 12 12
32 33 33 32 30 27 25 25 24 22 22 20 19 17 14 13 13 12 11 9 9 8 8 8 8 7 6 6 6 6 4 3 4 5 5 6 7 8 8 9 10 11 12
31 32 33 33 31 29 27 26 25 24 22 21 21 18 16 14 13 12 11 10 10 10 9 9 9 8 7 6 6 5 5 5 5 5 4 5 6 7 8 9 9 11 12
31 32 34 34 34 32 29 27 25 24 23 21 20 18 19 16 14 13 13 12 10 10 10 10 9 9 7 6 5 6 6 6 5 4 3 4 6 7 7 8 8 10 12
32 33 35 35 33 33 30 27 25 24 23 21 21 20 21 19 17 18 17 15 13 12 11 11 11 10 8 6 7 7 6 5 4 2 1 3 5 6 7 8 8 10 11
31 35 36 36 35 32 30 28 26 25 23 22 23 23 20 19 20 19 16 16 14 13 12 11 10 9 8 8 6 5 4 4 4 2 2 4 6 6 7 8 8 10 11
31 35 37 37 36 34 32 30 28 27 25 24 24 23 21 20 19 17 16 16 15 13 13 12 10 9 8 7 6 5 4 3 3 3 3 4 5 6 6 7 8 10 10
32 35 38 39 36 35 32 31 30 28 27 26 25 24 21 20 19 17 16 16 15 14 13 12 11 10 9 8 7 6 5 4 3 3 3 4 4 5 6 7 7 8 8
34 35 38 39 37 35 33 32 30 29 28 27 26 24 22 20 19 17 18 16 15 14 13 12 11 10 9 9 7 6 6 5 4 3 3 3 4 4 6 7 7 6 6
Wind_Direction
243 247 250 257 266 276 286 295 300 309 313 317 323 325 330 332 328 321 319 341 344 339 333 331 333 341 340 346 350 355 343 340 338 337 352 344 355 1 10 13 44 14 50
240 244 246 252 260 269 277 287 296 301 308 313 320 323 327 330 331 334 333 339 345 329 332 326 335 343 336 336 358 346 342 344 339 340 339 344 347 350 358 0 14 59 47
237 241 244 250 255 262 271 280 288 296 304 310 315 322 325 331 334 338 318 331 336 324 325 332 338 329 333 345 353 344 337 340 338 340 349 352 344 338 337 339 342 352 325
238 241 244 247 253 260 269 278 285 291 301 307 314 318 324 328 330 330 319 327 330 322 329 332 323 325 345 347 345 346 352 352 346 341 331 326 327 329 325 335 348 353 345
236 241 244 247 251 258 265 275 282 287 294 301 306 312 319 324 327 326 326 333 330 333 334 333 332 333 334 338 338 345 347 351 355 353 343 340 349 348 355 357 359 354 339
236 240 242 243 248 254 261 269 278 284 290 296 305 310 316 319 323 326 327 333 334 340 333 331 338 349 319 339 341 342 342 345 345 350 344 344 344 340 346 349 358 12 19
234 237 240 244 247 252 258 264 273 280 285 293 299 306 312 315 319 323 323 329 332 328 329 329 336 340 336 338 334 333 339 348 345 333 336 327 314 321 333 328 348 357 360
234 236 238 242 248 250 254 261 269 277 284 292 297 301 307 313 315 320 320 323 328 325 325 327 332 339 340 334 325 324 326 343 342 350 1 7 355 337 332 348 353 354 353
235 237 239 242 247 251 255 260 266 273 281 289 294 300 303 310 311 313 315 321 327 329 315 325 326 333 342 343 338 339 343 345 0 350 346 18 6 1 357 13 356 357 4
237 240 241 243 247 251 256 260 266 272 280 286 291 297 301 309 310 309 314 318 322 303 310 317 317 321 334 336 343 345 346 345 347 11 23 12 7 24 30 26 26 20 23
240 241 241 242 247 252 255 258 264 270 275 283 291 299 303 311 316 312 310 313 312 313 313 299 306 316 323 327 344 350 349 354 3 10 12 351 356 359 1 3 9 8 5
241 242 242 243 245 247 252 256 260 266 272 279 286 296 304 309 309 316 316 318 324 326 327 294 304 307 312 316 348 357 357 358 356 359 332 325 340 346 354 356 353 355 349
240 243 245 244 244 247 250 254 257 262 268 276 281 289 296 299 301 308 310 305 311 303 312 314 320 314 316 319 344 357 1 6 1 354 347 351 349 356 360 345 339 345 356
241 243 245 246 246 245 248 252 256 259 265 271 275 279 287 287 291 279 279 296 283 274 283 293 297 306 318 339 346 347 356 357 3 1 4 358 352 356 356 347 349 353 352
240 242 245 246 246 248 250 254 257 261 262 266 270 271 276 280 275 278 282 295 296 300 299 291 281 293 289 289 288 318 340 347 354 355 1 3 1 360 0 354 354 350 351
239 240 243 246 246 248 251 254 256 258 261 266 266 268 271 272 270 281 284 292 298 303 295 256 270 262 261 279 276 280 300 317 346 358 358 355 355 356 357 360 356 349 348
242 242 243 244 245 247 250 251 252 254 253 257 263 264 266 266 269 277 283 286 290 286 255 240 247 245 250 262 265 274 285 321 325 346 349 351 352 356 356 359 355 352 355
244 243 242 244 246 249 250 252 252 250 254 258 260 261 262 261 263 266 269 272 268 261 255 245 243 244 246 248 252 266 277 287 331 330 346 351 352 357 359 358 357 354 353
243 241 242 243 244 246 247 249 250 248 251 256 256 258 262 263 256 257 255 251 247 244 252 245 240 241 238 233 243 260 270 277 304 328 338 350 355 353 355 355 354 355 353
244 242 241 242 244 241 243 243 243 243 246 248 252 256 254 252 252 254 247 242 239 239 244 242 238 233 229 236 239 243 249 260 280 309 311 334 352 350 348 350 352 352 352
245 242 240 239 240 243 243 243 244 242 243 246 247 245 250 252 252 249 255 257 248 242 237 234 226 218 224 232 242 245 252 256 281 303 315 319 342 345 343 343 344 346 343
245 243 238 241 239 240 241 241 240 240 240 240 238 236 240 245 242 246 253 255 248 238 227 222 220 220 217 227 237 241 242 241 274 279 319 328 342 339 339 340 340 343 343
246 242 239 238 239 239 239 239 237 236 236 236 236 238 239 238 238 244 249 246 237 229 221 218 224 225 218 223 239 242 237 252 258 267 306 349 340 336 338 339 341 340 342
245 242 240 237 237 236 236 238 235 235 235 234 235 239 238 235 238 240 240 235 226 221 217 216 220 227 227 227 229 227 228 258 267 290 317 331 325 330 335 335 336 338 339
243 239 238 237 235 235 234 234 233 233 234 233 233 236 236 233 236 236 228 225 220 218 216 216 216 222 227 226 222 225 227 243 259 282 306 308 313 318 329 324 330 333 338
243 238 237 236 234 233 233 233 232 231 231 232 233 231 232 234 235 229 219 219 215 216 215 217 219 221 226 228 225 219 220 232 245 267 285 299 301 315 324 322 324 330 341